This is the latest recevied weather packets stored in our database for station/object AB1AU. If no packets are shown the sender has not sent any weather packets the latest 10 day(s).
| Time | Temp. | Humidity | Pressure | Rain* | Wind** | Luminosity | Snow |
|---|---|---|---|---|---|---|---|
| 1777754988 | 6.67° C | 88% | 1012.9 hPa | 0 mm | - | 66 W/m² | - |
| 1777754684 | 6.67° C | 88% | 1012.8 hPa | 0 mm | - | 75 W/m² | - |
| 1777754383 | 6.67° C | 88% | 1012.9 hPa | 0 mm | - | 68 W/m² | - |
| 1777754079 | 6.67° C | 88% | 1012.9 hPa | 0 mm | - | 66 W/m² | - |
| 1777753776 | 6.67° C | 88% | 1012.9 hPa | 0 mm | - | 79 W/m² | - |
| 1777753473 | 6.67° C | 89% | 1012.9 hPa | 0 mm | - | 72 W/m² | - |
| 1777753171 | 6.67° C | 89% | 1012.9 hPa | 0 mm | - | 70 W/m² | - |
| 1777752866 | 6.67° C | 89% | 1012.9 hPa | 0 mm | - | 87 W/m² | - |
| 1777752564 | 6.67° C | 89% | 1012.7 hPa | 0 mm | - | 78 W/m² | - |
| 1777752259 | 6.67° C | 88% | 1013 hPa | 0 mm | - | 62 W/m² | - |
| 1777751957 | 6.67° C | 88% | 1013 hPa | 0 mm | - | 65 W/m² | - |
| 1777751654 | 6.67° C | 88% | 1013.2 hPa | 0 mm | - | 56 W/m² | - |
| 1777751350 | 6.67° C | 88% | 1013.3 hPa | 0 mm | - | 57 W/m² | - |
| 1777751047 | 6.11° C | 88% | 1013.4 hPa | 0 mm | - | 53 W/m² | - |
| 1777750743 | 6.67° C | 88% | 1013.4 hPa | 0 mm | - | 41 W/m² | - |
| 1777750440 | 6.67° C | 88% | 1013.4 hPa | 0 mm | - | 35 W/m² | - |
| 1777750135 | 6.67° C | 87% | 1013.4 hPa | 0 mm | - | 49 W/m² | - |
| 1777749833 | 6.67° C | 87% | 1013.3 hPa | 0 mm | - | 46 W/m² | - |
| 1777749530 | 6.11° C | 87% | 1013.6 hPa | 0 mm | - | 47 W/m² | - |
| 1777749228 | 6.67° C | 87% | 1013.7 hPa | 0 mm | - | 50 W/m² | - |
| 1777748925 | 6.67° C | 87% | 1013.6 hPa | 0 mm | - | 38 W/m² | - |
| 1777748622 | 6.67° C | 87% | 1013.7 hPa | 1.78 mm | - | 62 W/m² | - |
| 1777748318 | 6.67° C | 87% | 1013.6 hPa | 1.78 mm | - | 49 W/m² | - |
| 1777748013 | 6.67° C | 87% | 1013.6 hPa | 0 mm | - | 62 W/m² | - |
| 1777747711 | 6.67° C | 87% | 1013.7 hPa | 0 mm | - | 75 W/m² | - |
* Rain latest hour (hover to see other rain measurements)
** Current wind speed in m/s (hover to see current wind gust speed)